GORIZONT 7 [-]

Last updated on Nov. 18, 2019, 4:21 a.m. UTC

1 14160U 83066A   19321.01724663 -.00000077  00000-0  00000+0 0  9994
2 14160  13.7323 332.5217 0013653 304.2753 250.6309  0.98347156131146
UTC
Height (km)
Latitude
Longitude
Inclination
Orbital Period
UTC large
Height (km)
Speed (km/s)
/
Latitude / Longitude
Inclination (degrees)
Orbital Period (minutes)
Azimuth
Elevation
Range (km)
Doppler Factor
iOS Compass Heading
iOS Angle

Next 30 passes for location: Hong Kong

Rise time Rise Azimuth (degrees) Set time Set Azimuth (degrees) Duration Max altitude (degrees)

No matching passes for this satellites